www.pogodaiklimat.ru
Время
(UTC), дата
12 12.04
15 12.04
18 12.04
21 12.04
00 13.04
03 13.04
06 13.04
09 13.04
12 13.04
15 13.04
18 13.04
21 13.04
00 14.04
03 14.04
06 14.04
09 14.04
12 14.04
15 14.04
18 14.04
21 14.04
00 15.04
03 15.04
06 15.04
09 15.04
12 15.04
15 15.04
18 15.04
21 15.04
00 16.04
03 16.04
06 16.04
09 16.04
12 16.04
15 16.04
18 16.04
21 16.04
00 17.04
03 17.04
06 17.04
09 17.04
12 17.04
15 17.04
18 17.04
21 17.04
00 18.04
03 18.04
06 18.04
09 18.04
12 18.04
15 18.04
18 18.04
21 18.04
00 19.04
03 19.04
06 19.04
Ветер
(напр.,м/с)
Видим. Явления Облачность Т
(С)
Тd
(С)
f
(%)
Тe
(С)
Тes
(С)
Комфортность P
(гПа)
Po
(гПа)
Тmin
(С)
Tmax
(С)
R
(мм)
R24
(мм)
S
(см)
ЮВ 9-13
{14}
200 м туман ?/? +5.9 +5.9 100 -0 -0 по сезону 1014.8 991.8
ЮВ 8-11
{14}
200 м слаб. морось {туман} туман ?/? +5.3 +5.3 100 -1 -1 по сезону 1011.5 988.5
ЮВ 6
{12}
200 м слаб. дождь {морось} туман ?/? +5.0 +5.0 100 -0 -0 по сезону 1007.8 984.9
ЮВ 3 200 м слаб. дождь {туман} туман ?/? +5.2 +5.2 100 +1 +1 по сезону 1003.7 980.9 +4.8 8
СЗ 10-17
{19}
50 км слаб. дождь {туман} 10/10 600 м
[Ns]
+3.9 +3.4 97 -3 -3 по сезону 1002.9 980.0 +3.9
СЗ 15-22
{25}
50 км {дождь} 9/9 600 м
[Sc]
+3.7 -3.4 60 -4 -4 холодно 1004.8 981.8
СЗ 14-20
{23}
50 км {дождь} 4/4 600 м
[Sc]
+4.4 -7.8 41 -2 -2 холодно 1006.3 983.3
СЗ 12-19
{22}
50 км 4/1 600 м
[Sc Ac lent]
+4.5 -11.7 30 -2 -2 прохладно 1007.7 984.7 +5.9 2
СЗ 9-14
{19}
50 км ясно +2.1 -12.0 34 -4 -4 прохладно 1012.0 988.7
СЗ 5
{15}
50 км 4/0
[Ac lent]
+1.0 -10.9 41 -4 -4 прохладно 1012.6 989.2
З 5 50 км 8/8 600 м
[Sc]
+0.6 -9.0 49 -5 -5 прохладно 1012.7 989.2
СЗ 3
{10}
50 км 3/3 600 м
[Sc]
-0.4 -6.9 61 -5 -5 прохладно 1013.8 990.2 -0.4
СВ 1 50 км 8/8 600 м
[Sc]
+1.9 -10.7 39 +1 +3 по сезону 1013.0 989.6 -0.6
Ю 7-11
{11}
50 км 6/6 600 м
[Sc]
+3.6 -8.5 41 -2 0 прохладно 1012.3 989.1
Ю 6
{13}
50 км 10/10 600 м
[Sc]
+4.6 -4.7 51 0 0 прохладно 1010.7 987.6
ЮВ 4
{10}
50 км 3/3 600 м
[Sc]
+3.7 -1.6 68 -1 -0 прохладно 1011.4 988.2 +5.5
ЮЗ 6 50 км ясно +3.8 -4.1 56 -1 -1 по сезону 1013.6 990.4
ЮЗ 4
{10}
50 км 6/0
[Ac lent]
+3.0 -2.9 65 -1 -1 по сезону 1014.4 991.1
ЮЗ 4 50 км ясно +3.7 -5.1 53 -0 -0 по сезону 1015.0 991.8
Ю 3 50 км ясно +2.9 -6.9 48 -0 -0 по сезону 1016.2 992.9 +2.9
ЮВ 4 50 км ясно +7.1 -3.9 45 +4 +10 тепло 1016.1 993.1 +2.6
ЮВ 8-10
{10}
50 км 6/0
[Ac lent Cc]
+8.8 -1.3 49 +5 +7 по сезону 1015.3 992.5
ЮВ 9-11
{12}
50 км 9/0
[Ac lent Cc]
+7.4 +3.5 76 +2 +3 по сезону 1014.5 991.6
ЮВ 8-10
{12}
50 км 8/3 600 м
[Sc Ac lent Cc]
+5.7 +3.1 83 0 0 по сезону 1014.9 991.9 +10.0
ЮВ 9-11
{12}
50 км 6/6 600 м
[Sc]
+4.7 +1.8 81 -2 -2 по сезону 1016.1 992.9
ЮВ 10-13
{14}
50 км 10/10 600 м
[Sc]
+4.9 +2.4 84 -2 -2 по сезону 1016.0 992.8
ЮВ 12-15
{17}
4000 м дымка 10/10 200 м
[St]
+5.4 +4.9 97 -2 -2 по сезону 1014.5 991.5
ЮВ 15-21
{21}
4000 м дымка {туман} 10/10 300 м
[St]
+5.1 +4.6 97 -3 -3 по сезону 1012.6 989.6 +4.6
ЮВ 17-23
{26}
20 км {туман} 10/10 600 м
[Sc]
+5.3 +2.6 83 -3 -3 по сезону 1011.7 988.7 +4.5
ЮВ 14-21
{25}
20 км слаб. ливневой дождь 10/10 300 м
[Cb cap]
+4.3 +3.3 93 -4 -4 холодно 1011.4 988.3
ЮВ 17-26
{26}
20 км {ливн. дождь} 10/10 600 м
[Sc]
+4.9 +3.5 91 -3 -3 холодно 1007.6 984.7
ЮВ 16-21
{26}
500 м слаб. ливневой дождь {туман} туман ?/? +4.8 +4.8 100 -3 -3 прохладно 1006.2 983.3 +5.8 1
ЮВ 5
{21}
10 км {ливн. дождь, туман} 9/9 600 м
[Sc]
+5.0 +3.9 93 0 0 по сезону 1008.9 986.0
З 1 10 км 8/8 600 м
[Sc]
+5.8 +4.0 88 +5 +5 тепло 1011.0 988.1
В 4 10 км 6/3 600 м
[Sc Ac lent]
+4.4 +3.4 93 -0 -0 по сезону 1011.4 988.3
Ю 3 50 км 4/0
[Ac lent]
+4.2 +2.5 89 0 +1 по сезону 1012.2 989.1 +3.7 1
Ю 2 50 км 3/0
[Cc]
+8.3 +3.7 73 +7 +14 тепло 1013.3 990.5
Ю 3 50 км ясно +11.3 +0.7 48 +10 +23 опасность
простуды
1012.5 990.0
ЮВ 4 50 км 4/4 600 м
[Cu hum]
+11.5 +0.4 46 +10 +14 тепло 1010.4 987.9
ЮЗ 1 50 км 8/8 600 м
[Sc]
+8.8 0.0 54 +9 +9 тепло 1010.9 988.2 +13.0
З 3 50 км 4/4 600 м
[Sc]
+8.3 -3.5 43 +6 +6 тепло 1011.2 988.4
С 9-14
{14}
50 км 6/6 600 м
[Sc]
+5.6 +0.3 69 -0 -0 по сезону 1010.0 987.0
С 10-15
{16}
50 км 8/8 600 м
[Sc]
+4.6 -0.4 70 -2 -2 по сезону 1009.5 986.5
С 10-15
{18}
50 км 4/4 600 м
[Sc]
+4.1 -2.2 64 -2 -2 по сезону 1009.8 986.7 +3.8
С 9-14
{17}
50 км ясно +6.6 -1.1 58 +2 +2 по сезону 1009.5 986.6
СЗ 11-19
{19}
50 км 8/8 600 м
[Sc]
+10.4 +0.4 50 +6 +6 тепло 1007.5 985.0
С 10-16
{19}
50 км 6/6 600 м
[Sc]
+11.2 +0.6 48 +8 +8 тепло 1006.2 983.8
С 7-11
{16}
50 км 3/3 600 м
[Sc]
+11.4 +0.2 46 +9 +9 тепло 1006.0 983.6 +12.2
С 4
{13}
50 км 4/4 600 м
[Sc]
+9.0 +1.5 59 +6 +6 тепло 1008.0 985.4
СЗ 3 50 км 3/3 600 м
[Sc]
+7.9 +1.5 64 +5 +5 тепло 1008.0 985.3
СЗ 3 50 км ясно +7.1 -0.5 58 +5 +5 тепло 1008.1 985.3
З 2 50 км ясно +6.3 -0.8 60 +4 +5 тепло 1007.8 985.0 +6.2
Ю 1 20 км ясно +11.0 -0.7 44 +11 +21 опасность
простуды
1006.2 983.8
ЮВ 4 20 км ясно +13.8 -0.8 37 +13 +24 опасность
простуды
1004.7 982.5
Ю 7
{10}
50 км ясно +16.0 -2.9 27 +15 +18 тепло 1002.8 980.8
Местоположение метеостанции Владивосток (Приморский край, Россия): широта 43.12 долгота 131.90 высота над уровнем моря 188 м.
В архиве по умолчанию представлена погода в Владивостоке за последнюю неделю. Архивные данные за месяц целиком и за предыдущие месяцы, начиная с января 2011 года, Вы можете получить, выбрав интересующий диапазон дат из раскрывающегося списка и нажав кнопку "Найти!".
*Определитесь, кто Вы:
Внимание! Время в таблицах - всемирное. Для получения местного времени необходимо прибавить поправку, которая равна 10 ч.
Смотрите также архив погоды в соседних городах и на ближайших метеорологических станциях:
Партнеры нашего сайта:      
Пояснения к столбцам:
  • Ветер - указаны скорость ветра в м/с - средняя за 10 мин, порывы в срок и между сроками (в фигурных скобках) и направление, откуда дует ветер: С - северный,
  • СВ - северо-восточный, В - восточный, ЮВ - юго-восточный, Ю - южный, ЮЗ - юго-западный, З - западный, СЗ - северо-западный.
  • Видимость - горизонтальная дальность видимости в метрах или километрах. При видимости от 1 до 10 км при отсутствии осадков обычно наблюдается дымка, при ухудшении видимости до 1 км и менее - туман. В сухую погоду видимость может ухудшаться дымом, пылью или мглою.
  • Явления - указаны атмосферные явления, наблюдавшиеся в срок или в последний час перед сроком; фигурными скобками обозначены явления, наблюдавшиеся между сроками (за 1-3 часа до срока); квадратными скобками обозначены град или гололедные отложения с указанием их диаметра в мм.
  • Облачность - указаны через наклонную черту общая и нижняя облачность в баллах и высота нижней границы облаков в метрах; квадратными скобками обозначены формы облаков: Ci - перистые, Cs - перисто-слоистые, Cc - перисто-кучевые, Ac - высококучевые, As - высокослоистые, Sc - слоисто-кучевые, Ns - слоисто-дождевые, Cu - кучевые, Cb - кучево-дождевые. Подробнее классификацию облаков см. в Атласе облаков (PDF).
  • T - Температура воздуха - температура, измеренная на высоте 2 м над землей.
  • Td - Температура точки росы - температура, при понижении до которой содержащийся в воздухе водяной пар достигнет насыщения.
  • f - Относительная влажность воздуха - влажноcть воздуха, измеренная на высоте 2 м над землей.
  • Te - Эффективная температура - температура, которую ощущает одетый по сезону человек в тени. Характеристика душности погоды. При расчете учитывается влияние влажности воздуха и скорости ветра на теплоощущения человека.
  • Tes - Эффективная температура на солнце - температура, которую ощущает человек, с поправкой на солнечный нагрев. Характеристика знойности погоды. Зависит от высоты солнца над горизонтом, облачности и скорости ветра. Ночью, в пасмурную погоду, а также при ветре 12 м/с и более поправка равна нулю.
  • P - Атмосферное давление - приведенное к уровню моря атмосферное давление.
  • Po - Атмосферное давление - измеренное на уровне метеостанции атмосферное давление.
  • Tmin - Минимальная температура - минимум температуры воздуха на высоте 2 м над землей.
  • Tmax - Максимальная температура - максимум температуры воздуха на высоте 2 м над землей.
  • R - Количество осадков - Количество выпавших осадков за период времени, мм. При наведении курсора мыши на число - период времени, за который выпало указанное количество осадков.
  • R24 - Количество осадков - Количество выпавших осадков за 24 часа, мм.
  • S - Снежный покров - Высота снежного покрова, см. При наведении курсора мыши на число - состояние снежного покрова и степень покрытия местности в баллах.